ONEWEB-0167

Last updated on April 25, 2021, 12:02 a.m. UTC

1 48064U 21025Y   21114.58336806 -.01086276  00000-0 -57768-1 0  9996
2 48064  87.4104 339.3884 0008967 160.4267  74.7377 15.18432691  1750
UTC
Height (km)
Latitude
Longitude
Inclination
Orbital Period
UTC large
Height (km)
Speed (km/s)
/
Latitude / Longitude
Inclination (degrees)
Orbital Period (minutes)
Azimuth
Elevation
Range (km)
Doppler Factor
iOS Compass Heading
iOS Angle

Next 30 passes for location: Hong Kong

Rise time Rise Azimuth (degrees) Set time Set Azimuth (degrees) Duration Max altitude (degrees)

No matching passes for this satellites